Temperature
16 16 16 16 13 12 12 14 16 17 19 21 22 22 20 20 21 21 20 21 20 18 17 16 15 15 15 15 15 15 15 15 15 14 14 14 14 13 13 13 13 13 13 13 13 13 13 13 12
16 15 15 15 12 12 12 14 16 18 20 22 22 21 20 20 20 20 20 19 19 18 17 16 15 15 15 15 15 15 15 14 14 14 13 13 13 13 13 12 12 12 12 12 12 12 12 12 12
15 15 15 12 11 12 14 15 17 19 21 21 21 21 20 20 20 21 21 19 18 17 16 16 15 15 15 15 15 15 14 14 14 13 13 13 13 12 12 12 12 12 12 12 12 12 12 12 12
14 14 14 11 12 13 15 16 17 18 20 21 20 19 20 20 21 21 20 19 18 17 16 16 15 15 15 15 15 14 14 14 13 13 13 12 12 12 12 12 12 12 12 12 12 12 12 12 12
14 14 12 12 13 14 15 17 18 18 18 21 20 18 19 20 20 21 20 19 18 17 16 15 15 15 15 15 15 14 14 13 13 13 12 12 12 11 12 12 12 12 11 11 12 12 12 12 12
13 12 12 12 13 15 15 17 18 17 18 19 19 18 18 19 20 20 20 19 18 17 16 15 15 15 15 14 14 14 14 13 13 12 12 12 12 12 12 11 11 11 11 12 12 12 12 12 11
12 11 12 13 14 14 16 18 17 17 17 19 20 17 17 18 19 19 19 18 17 16 15 14 14 14 14 14 14 14 13 13 13 12 12 12 12 12 11 11 11 11 12 12 12 12 12 12 11
13 11 12 13 13 14 17 18 19 19 19 21 21 17 17 18 18 18 17 17 16 15 15 14 14 14 14 14 14 14 13 13 13 12 12 12 12 12 12 12 11 11 12 12 12 12 12 11 11
12 11 12 13 14 15 17 18 19 20 20 20 21 21 21 18 17 16 16 15 15 14 14 14 14 14 14 14 14 13 13 13 13 12 12 12 12 12 12 12 12 11 12 12 12 11 11 11 11
12 12 13 14 15 15 17 17 18 19 18 18 19 20 19 18 17 16 15 15 14 14 14 14 14 14 14 14 13 13 13 13 13 12 12 12 12 12 12 11 11 11 12 11 11 11 11 11 11
11 11 13 14 16 16 16 17 17 17 16 18 18 19 18 17 16 16 16 16 16 15 14 14 14 14 14 14 13 13 13 13 12 12 12 12 12 12 11 11 11 11 11 11 11 11 11 11 10
11 12 13 14 15 15 15 16 17 17 18 19 20 20 18 17 16 16 16 16 15 15 14 14 14 14 14 14 14 13 13 13 13 12 12 12 12 12 12 11 11 11 11 11 11 11 11 10 10
11 12 13 14 14 15 15 15 16 17 18 18 19 18 17 17 17 17 17 16 15 15 15 14 14 14 14 14 14 13 13 13 13 12 12 12 12 12 12 11 11 11 11 11 11 11 10 10 10
11 11 12 13 13 14 14 15 15 16 17 17 17 17 17 17 17 16 15 15 15 15 15 15 14 14 14 14 14 14 13 13 13 13 12 12 12 12 12 11 11 11 11 11 11 10 10 10 10
10 10 11 12 12 13 14 14 14 16 16 16 16 16 17 17 17 17 17 17 17 16 15 15 15 14 14 14 14 14 13 13 13 13 12 12 12 12 12 11 11 11 11 10 10 10 10 10 10
10 9 9 11 12 13 13 12 14 16 16 15 16 16 16 16 17 18 18 17 17 16 15 15 15 14 14 14 14 14 13 13 13 13 12 12 12 12 11 11 11 11 10 10 10 10 10 10 10
8 8 9 11 12 12 12 12 14 16 15 15 15 16 16 16 16 17 17 17 17 16 16 15 15 15 15 14 14 14 13 13 13 13 12 12 12 11 11 11 11 11 10 10 10 10 10 10 10
8 8 9 10 12 12 12 12 13 15 15 15 15 15 16 16 17 17 17 17 17 16 16 16 15 15 15 14 14 13 13 13 13 13 13 12 12 12 11 11 11 11 10 10 10 10 10 10 9
8 9 9 10 12 12 11 12 13 14 14 14 14 15 15 16 18 18 17 17 17 16 16 15 15 15 14 14 14 14 13 13 13 13 13 12 12 12 12 11 11 11 11 10 10 10 9 9 9
8 8 8 10 11 11 11 11 12 13 14 14 14 15 15 16 17 17 17 17 17 17 16 16 16 15 15 15 15 15 14 14 13 13 13 12 12 12 12 11 11 11 10 10 10 10 10 9 9
7 7 8 9 10 11 10 10 11 12 14 15 15 16 16 16 17 17 17 17 17 17 17 16 16 16 16 15 15 14 13 12 12 12 13 13 12 12 12 12 11 11 11 10 10 10 10 10 9
7 8 9 9 8 8 9 9 10 11 12 13 14 15 16 16 17 17 17 17 17 18 18 17 17 17 16 15 15 14 14 14 14 14 14 13 12 12 12 12 11 11 11 10 10 10 10 10 9
7 8 8 8 8 8 8 8 9 11 12 13 13 15 16 16 17 17 18 18 18 18 18 18 17 17 16 16 15 15 15 15 15 14 13 13 12 12 12 11 11 11 11 11 10 10 10 10 9
8 8 8 7 7 7 8 8 9 10 12 13 13 15 16 17 17 17 18 18 18 18 18 18 17 17 17 16 15 15 15 15 14 14 13 13 12 12 12 11 11 11 11 11 10 10 10 10 9
7 6 6 6 6 7 8 9 9 11 12 13 14 15 16 16 17 17 18 18 18 18 18 18 17 17 17 16 16 16 15 15 15 15 14 13 13 12 12 12 11 11 11 11 10 10 10 9 9
6 6 6 6 7 7 8 9 10 11 12 13 14 15 15 16 16 17 17 18 18 18 18 18 17 17 17 16 16 16 15 15 14 14 14 14 14 14 13 12 12 11 11 11 10 10 10 9 9
6 6 7 7 7 7 8 8 10 11 11 12 13 14 15 15 16 17 17 18 18 18 18 18 17 17 17 17 16 16 15 15 15 14 14 13 13 13 12 12 12 11 11 10 10 10 9 9 9
7 6 6 6 6 7 8 8 9 11 11 12 12 12 14 15 16 16 17 17 18 18 18 18 17 17 17 17 16 16 16 15 15 14 14 13 13 12 12 12 11 11 11 10 10 10 9 9 9
6 6 6 6 6 6 7 9 10 10 11 11 12 13 14 14 15 16 17 17 17 18 18 17 17 17 17 17 16 16 15 15 14 14 13 13 12 12 12 11 11 11 10 10 10 10 9 9 9
5 5 5 5 5 6 6 8 11 10 11 11 11 12 13 14 15 16 16 17 17 17 17 17 17 16 16 16 16 16 15 15 14 14 13 13 12 12 11 11 11 11 10 10 10 9 9 9 9
Wind_Speed
5 2 4 4 4 1 7 8 6 6 5 6 5 5 6 7 6 5 5 14 17 20 23 28 28 26 26 25 24 23 22 22 22 21 20 20 19 19 18 18 18 18 18 18 17 17 17 16 16
2 3 4 4 4 5 8 8 11 15 9 2 2 3 3 3 2 8 9 15 21 22 22 25 28 27 26 26 25 24 23 22 22 21 20 20 19 19 18 18 18 17 17 17 16 16 16 15 15
2 3 4 4 6 9 9 8 14 14 11 7 3 0 5 6 7 9 10 20 20 19 21 25 29 28 27 26 25 24 23 22 22 21 20 20 19 19 18 17 17 17 17 16 16 15 15 15 15
2 2 2 5 13 12 9 7 4 5 6 5 5 2 2 3 8 9 18 21 21 17 20 26 29 28 27 26 25 24 24 23 22 21 20 20 19 19 18 17 17 16 16 16 15 15 15 14 14
2 3 5 10 15 10 10 12 9 8 6 4 3 5 2 2 8 18 21 22 21 17 19 25 29 28 27 26 25 25 24 23 22 21 20 19 19 18 18 17 17 16 16 15 15 14 14 14 13
2 3 8 15 16 11 11 11 9 11 10 7 3 4 2 4 14 19 20 20 19 18 18 23 28 28 27 26 26 25 24 23 22 21 20 20 19 18 17 17 16 16 16 15 14 14 13 13 13
5 6 11 12 13 13 13 9 10 12 12 10 7 6 3 6 12 17 17 17 17 17 16 17 22 25 26 26 25 25 24 23 23 22 21 20 19 18 17 16 16 15 15 14 13 13 12 12 12
5 5 10 11 13 13 7 7 8 11 11 7 7 10 8 10 12 15 16 16 16 14 13 14 17 20 21 22 24 24 24 23 22 21 21 20 19 18 17 16 15 15 14 13 12 12 11 11 10
5 9 16 14 11 8 5 7 7 6 5 4 4 7 9 18 19 19 17 16 17 16 14 14 14 15 17 19 22 23 23 22 22 21 21 18 16 16 15 15 15 14 13 12 11 10 9 8 8
8 15 21 9 7 6 5 7 6 4 3 2 2 2 12 21 23 24 24 24 22 21 18 15 14 15 16 17 18 18 18 19 19 18 18 16 15 15 14 15 14 13 12 11 10 9 7 6 6
8 14 11 10 10 8 9 11 7 5 7 6 6 9 17 20 22 23 24 24 24 22 20 18 16 16 14 11 14 13 14 16 17 18 18 16 14 13 12 12 12 11 10 8 7 6 5 4 5
9 11 10 10 11 11 12 10 10 9 11 8 10 17 20 22 23 24 23 22 20 21 21 19 17 16 14 13 11 11 11 11 12 16 18 15 10 9 9 9 9 9 8 6 5 4 3 4 5
15 14 14 13 13 14 13 14 12 14 10 5 9 15 20 23 21 19 18 19 19 21 21 20 18 17 15 13 11 12 11 11 14 16 17 17 10 8 8 8 9 9 8 6 5 4 4 4 5
10 11 12 12 14 12 14 16 13 16 6 6 10 15 17 20 20 16 16 18 20 22 21 20 20 18 16 13 11 11 12 13 15 15 17 18 15 11 9 7 7 8 9 8 7 6 5 4 4
9 11 14 15 13 9 8 16 18 15 7 8 11 14 15 15 16 19 22 22 22 22 21 21 21 20 18 16 14 13 13 14 12 14 18 19 17 15 11 7 6 9 11 9 7 5 5 3 3
7 10 12 12 12 11 10 19 15 10 10 11 12 12 14 15 17 18 20 19 20 20 21 22 20 21 20 16 14 12 13 13 12 15 17 19 19 18 13 8 7 11 10 8 4 4 3 3 2
7 10 13 12 11 9 12 13 10 9 11 12 12 13 14 14 15 15 17 19 20 21 22 23 21 22 21 17 14 12 13 13 13 15 15 18 19 19 14 9 8 12 8 5 5 3 4 3 2
9 9 10 12 7 11 14 15 11 8 11 13 12 13 14 16 18 17 18 19 20 20 21 22 21 21 19 15 11 10 11 11 12 13 15 18 18 19 15 10 10 11 6 5 5 5 3 3 3
8 10 12 11 8 9 14 17 16 12 11 12 13 12 14 17 18 17 19 19 19 20 21 22 21 20 18 16 15 15 14 13 12 11 15 18 18 18 14 9 9 8 7 7 7 4 4 2 3
12 14 15 13 10 9 12 17 14 13 14 13 15 16 15 15 14 15 17 19 21 23 24 24 23 23 22 18 16 13 11 9 10 9 12 18 18 18 15 11 10 9 7 7 7 5 4 2 3
12 13 13 12 10 9 10 14 15 13 14 14 14 15 16 18 18 17 18 19 21 24 25 24 25 24 23 18 12 9 7 6 7 11 12 14 18 18 15 13 11 10 9 9 8 7 7 5 3
13 10 10 11 8 6 7 9 12 12 15 17 17 15 16 16 17 17 18 20 21 24 25 25 26 25 23 20 18 18 15 14 14 12 11 11 15 16 16 14 13 11 9 9 9 8 5 6 4
8 7 8 8 7 8 8 8 9 9 15 18 17 16 16 16 16 17 19 21 21 23 23 23 24 24 23 22 22 21 16 13 8 8 11 12 12 14 15 15 13 11 9 10 9 8 7 6 5
4 3 5 5 4 9 12 10 9 10 16 16 17 17 17 16 15 16 17 18 18 19 20 21 23 24 24 24 23 23 20 15 13 13 14 13 10 11 13 14 13 12 10 10 10 9 9 7 6
4 3 2 3 5 8 8 9 11 12 12 17 17 16 15 14 13 13 15 17 17 19 20 21 23 23 24 25 24 24 22 20 19 17 16 14 11 11 15 13 13 11 10 10 9 9 9 8 7
7 7 5 4 5 5 6 10 9 11 10 11 13 14 14 14 14 14 15 17 18 20 21 22 23 23 24 25 24 22 21 17 15 15 14 15 13 13 13 13 12 12 11 10 9 8 8 7 7
4 6 4 2 3 4 6 6 8 7 8 9 10 10 13 14 14 15 14 15 17 20 21 22 23 22 23 24 23 21 20 18 16 15 13 12 11 10 11 13 12 11 11 11 10 8 8 7 7
4 3 3 3 3 5 6 6 5 4 6 8 8 10 11 11 12 13 13 14 15 18 19 20 22 23 21 22 21 18 20 19 17 15 15 14 12 11 12 13 12 11 11 11 10 8 8 8 7
4 4 3 4 4 3 4 6 4 5 6 8 9 8 9 9 10 11 11 12 13 13 16 17 18 17 18 20 19 18 18 17 16 16 16 15 13 13 14 13 13 12 12 11 10 9 9 9 7
5 6 6 4 5 4 4 8 4 5 6 6 8 8 7 7 7 8 8 9 10 12 13 15 16 17 17 18 17 18 17 16 16 16 15 14 14 14 13 13 12 12 12 11 12 11 10 10 9
Wind_Direction
247 116 90 68 70 106 236 236 231 252 240 222 210 172 170 177 176 188 132 141 140 154 159 157 156 153 149 146 142 139 137 134 132 130 128 126 122 119 116 114 111 108 105 102 101 100 99 98 96
161 119 77 81 144 215 244 229 228 237 232 257 238 173 147 193 153 126 137 150 147 154 156 157 156 153 150 147 144 142 140 137 134 132 131 129 126 122 119 115 113 110 108 106 104 103 102 100 97
161 141 128 142 191 209 229 225 227 242 248 246 247 199 166 168 155 158 156 149 148 153 155 157 155 153 150 149 147 145 143 140 138 136 134 131 128 125 122 119 116 115 112 110 108 107 106 102 96
125 108 128 195 228 222 220 233 249 282 284 236 188 155 163 177 167 158 145 147 148 152 154 158 155 153 152 151 149 148 146 143 141 139 137 134 131 128 124 122 121 119 116 114 112 110 108 104 99
106 145 202 231 236 237 237 250 270 279 272 264 167 160 174 334 136 137 145 148 150 153 155 158 156 155 154 153 151 150 148 146 144 142 140 138 135 130 127 125 125 124 122 119 116 113 110 106 100
173 173 208 229 236 242 246 245 257 261 263 261 187 153 178 131 137 144 148 150 151 154 155 159 158 156 156 155 153 152 150 149 147 146 143 141 138 135 133 131 129 126 122 120 117 115 113 109 102
189 197 224 229 237 244 243 235 234 243 251 241 179 146 145 155 151 145 145 145 149 153 156 157 158 158 158 157 155 155 153 152 150 149 146 143 142 140 138 135 132 128 126 123 121 118 116 111 102
193 204 231 228 231 241 235 229 228 221 237 228 164 158 178 183 150 138 139 143 149 155 158 156 155 157 158 157 157 156 155 154 153 150 146 145 145 143 141 139 137 133 131 128 125 122 118 110 101
186 221 230 220 220 235 229 242 256 238 217 231 198 185 180 150 141 140 143 148 157 162 162 158 155 155 155 156 159 157 156 155 152 150 148 145 143 141 141 143 141 139 137 134 131 128 121 110 99
203 227 232 222 215 235 259 261 270 286 265 268 359 55 133 147 151 155 161 164 167 170 169 165 160 158 157 160 158 157 156 155 151 151 149 145 143 143 145 149 148 147 144 140 138 137 128 108 95
214 233 240 240 246 260 271 274 275 247 250 226 187 159 151 159 162 166 170 172 173 171 170 169 165 162 161 159 158 157 155 154 154 154 152 150 148 149 150 152 152 150 148 144 140 130 125 120 116
242 248 241 248 252 256 261 268 276 251 242 231 183 165 164 169 173 174 175 174 171 172 174 171 168 167 165 161 163 160 159 161 162 162 159 155 152 154 157 157 158 157 158 156 150 149 153 145 138
239 250 251 253 253 253 261 260 264 267 262 236 177 167 176 178 180 180 175 171 170 175 175 174 172 171 168 165 168 168 166 168 168 168 168 164 161 164 165 167 167 170 172 169 165 168 164 152 140
243 256 260 260 258 253 252 260 254 258 243 204 180 182 187 187 181 175 172 174 176 178 177 176 176 175 171 172 173 172 172 173 173 175 175 172 170 171 170 170 174 181 183 179 174 170 161 153 140
243 256 263 255 251 245 249 259 244 245 220 212 205 196 194 197 189 183 182 181 181 180 178 178 178 177 176 176 176 175 177 176 179 181 180 177 176 174 173 172 177 186 184 175 164 154 144 135 124
229 235 246 246 233 234 221 247 246 231 216 223 221 211 202 201 200 196 189 185 182 179 179 180 180 180 180 179 178 177 180 181 183 183 182 181 180 177 172 173 181 183 174 165 151 145 134 131 129
218 224 236 250 227 222 217 246 250 225 223 230 224 220 211 206 206 204 197 190 185 183 181 181 181 182 182 180 178 177 180 183 185 185 184 184 183 180 174 175 181 176 164 160 160 150 144 146 152
215 220 234 238 231 221 234 249 256 234 223 228 224 220 219 212 210 203 199 194 189 186 183 183 182 182 180 177 174 175 180 185 186 186 185 183 184 181 176 174 176 170 162 163 160 152 142 150 158
253 253 253 254 258 247 245 250 251 241 235 234 233 224 221 220 216 205 200 194 189 187 185 184 183 181 179 181 182 184 188 188 188 189 186 185 184 181 178 176 173 171 173 172 163 150 149 153 138
254 255 259 271 256 256 257 257 257 242 233 230 230 228 223 224 221 210 202 195 192 190 189 188 187 184 185 188 189 187 180 182 185 184 187 188 185 183 184 177 178 176 171 169 169 155 151 165 156
253 249 249 258 280 261 266 267 254 249 238 234 230 228 225 221 219 212 205 199 194 193 191 191 190 188 188 185 176 161 153 157 179 191 193 193 188 186 185 181 178 178 177 181 181 171 164 174 193
252 249 257 261 264 263 229 258 255 241 240 236 234 230 227 224 219 214 206 201 197 196 193 193 191 190 189 183 181 179 184 191 196 191 190 188 189 188 187 183 181 181 182 183 185 181 171 164 183
244 250 255 263 254 263 245 248 263 225 232 233 231 230 227 223 217 212 207 202 200 196 193 193 191 191 189 187 187 188 193 196 180 173 179 187 191 190 189 186 185 185 187 187 185 181 180 177 178
245 233 269 262 244 248 234 228 260 229 223 228 229 229 227 223 219 215 210 201 201 196 192 191 191 192 189 189 190 192 193 187 175 181 187 190 191 192 192 189 189 189 189 190 188 186 184 187 182
199 169 218 225 219 240 211 219 248 238 226 222 227 228 227 223 217 212 209 200 198 194 192 190 190 192 191 191 193 195 195 191 189 189 191 190 190 195 196 192 191 191 190 187 181 184 190 188 188
210 190 197 217 225 260 211 226 249 245 235 230 230 232 229 225 222 215 208 202 197 194 192 190 191 192 191 193 195 196 194 194 197 193 192 195 198 198 191 191 192 190 186 184 182 187 191 189 195
203 213 216 248 268 258 237 255 282 261 252 243 240 236 232 228 223 218 209 202 198 194 193 192 192 193 192 193 194 194 194 194 195 192 191 194 194 189 185 188 189 187 185 184 182 192 192 188 196
210 195 175 202 228 247 258 247 236 258 261 257 248 245 244 239 227 218 209 202 199 195 192 191 193 193 192 192 194 195 194 195 192 188 192 193 190 184 184 188 188 186 185 184 185 188 188 189 196
196 205 211 210 230 232 258 266 233 239 269 274 262 257 252 246 233 218 208 202 195 189 189 189 190 190 191 192 192 191 192 191 188 190 192 191 188 186 187 188 188 187 187 185 187 190 183 189 193
227 213 198 211 238 239 255 268 276 290 297 298 296 289 282 262 239 215 203 190 185 185 185 187 189 188 189 189 188 189 188 186 187 190 189 185 186 187 186 183 185 187 187 187 188 188 184 188 191
Height
1504 1505 1507 1508 1512 1518 1515 1501 1491 1485 1481 1476 1476 1476 1476 1478 1482 1485 1480 1480 1484 1488 1493 1498 1502 1505 1508 1511 1514 1516 1518 1519 1521 1523 1524 1526 1527 1528 1529 1530 1531 1531 1532 1533 1533 1534 1534 1534 1535
1502 1503 1506 1506 1513 1518 1508 1493 1486 1478 1475 1474 1475 1474 1473 1474 1474 1475 1476 1480 1484 1488 1492 1496 1501 1504 1507 1510 1513 1515 1517 1519 1521 1522 1524 1525 1527 1528 1529 1530 1531 1531 1532 1533 1533 1534 1534 1535 1536
1499 1501 1503 1504 1508 1504 1495 1482 1477 1472 1473 1474 1473 1472 1472 1471 1472 1473 1475 1479 1483 1487 1491 1495 1500 1503 1507 1509 1512 1514 1516 1518 1520 1522 1524 1525 1527 1528 1529 1530 1530 1531 1532 1533 1534 1534 1535 1536 1536
1497 1499 1500 1502 1497 1486 1480 1473 1472 1471 1470 1470 1470 1471 1471 1471 1471 1472 1475 1479 1482 1487 1491 1495 1499 1502 1506 1509 1511 1514 1516 1518 1520 1522 1524 1525 1526 1527 1528 1529 1530 1531 1532 1533 1534 1535 1536 1536 1537
1494 1494 1497 1495 1486 1478 1473 1470 1471 1471 1470 1467 1468 1468 1469 1470 1471 1473 1475 1478 1481 1485 1490 1494 1498 1502 1505 1508 1510 1513 1515 1517 1519 1521 1523 1525 1526 1527 1528 1529 1531 1532 1533 1534 1535 1536 1536 1537 1538
1491 1490 1493 1486 1478 1472 1469 1468 1470 1469 1467 1466 1466 1466 1467 1469 1470 1472 1475 1478 1482 1485 1490 1494 1498 1501 1504 1507 1510 1512 1515 1517 1519 1521 1522 1524 1525 1527 1528 1529 1531 1532 1534 1534 1536 1536 1537 1538 1539
1486 1485 1482 1477 1473 1470 1464 1465 1467 1466 1464 1462 1462 1464 1466 1468 1469 1471 1474 1478 1482 1486 1489 1493 1497 1500 1504 1507 1509 1512 1514 1516 1518 1520 1522 1524 1525 1527 1528 1530 1531 1533 1534 1535 1536 1537 1538 1539 1540
1478 1479 1474 1471 1469 1464 1459 1460 1460 1460 1459 1458 1458 1459 1462 1465 1468 1471 1474 1478 1482 1485 1489 1492 1496 1499 1502 1506 1508 1511 1514 1516 1518 1520 1522 1523 1525 1527 1528 1530 1532 1533 1534 1536 1537 1538 1539 1540 1540
1474 1475 1465 1462 1463 1459 1456 1457 1456 1456 1455 1454 1454 1454 1455 1460 1464 1469 1473 1477 1481 1485 1488 1491 1494 1498 1501 1504 1507 1510 1513 1515 1517 1519 1521 1523 1525 1527 1529 1530 1532 1533 1535 1536 1537 1539 1539 1540 1541
1466 1462 1453 1454 1455 1454 1454 1454 1453 1453 1452 1451 1451 1451 1453 1457 1460 1464 1468 1472 1476 1480 1485 1489 1492 1496 1499 1503 1506 1509 1512 1514 1517 1519 1521 1523 1525 1527 1529 1530 1532 1534 1535 1537 1538 1539 1540 1541 1541
1457 1452 1450 1451 1452 1452 1452 1451 1451 1451 1450 1448 1448 1449 1451 1454 1457 1460 1463 1466 1470 1476 1481 1486 1490 1494 1497 1500 1504 1507 1510 1513 1515 1518 1520 1522 1524 1526 1528 1530 1532 1534 1535 1537 1538 1539 1540 1541 1542
1453 1448 1449 1449 1450 1450 1450 1449 1448 1447 1445 1444 1445 1446 1448 1451 1453 1456 1460 1464 1469 1474 1478 1483 1487 1491 1495 1499 1502 1505 1508 1511 1514 1516 1519 1521 1523 1525 1528 1530 1532 1533 1535 1536 1538 1539 1540 1541 1542
1449 1446 1446 1447 1447 1447 1447 1446 1445 1441 1441 1442 1443 1444 1445 1447 1450 1454 1457 1462 1466 1471 1475 1480 1484 1488 1492 1496 1500 1503 1506 1509 1512 1515 1517 1520 1522 1524 1527 1529 1531 1533 1535 1536 1538 1539 1540 1541 1542
1445 1444 1444 1443 1443 1443 1444 1441 1442 1436 1438 1440 1440 1442 1443 1445 1448 1452 1456 1460 1464 1468 1472 1477 1481 1486 1490 1494 1497 1501 1504 1507 1510 1513 1516 1518 1521 1523 1526 1528 1530 1532 1534 1536 1537 1539 1540 1541 1542
1445 1444 1441 1439 1439 1439 1442 1438 1433 1432 1436 1436 1437 1439 1441 1443 1446 1448 1451 1455 1459 1464 1469 1474 1478 1483 1487 1491 1495 1499 1502 1505 1508 1511 1514 1517 1519 1522 1525 1527 1529 1531 1533 1535 1536 1538 1539 1540 1541
1441 1442 1441 1433 1434 1435 1441 1434 1426 1429 1431 1432 1434 1436 1438 1440 1442 1445 1448 1452 1456 1461 1465 1470 1475 1480 1484 1488 1493 1496 1500 1503 1506 1509 1512 1515 1518 1520 1523 1525 1527 1530 1532 1534 1535 1537 1538 1539 1540
1439 1438 1436 1432 1428 1430 1433 1428 1423 1424 1426 1427 1429 1431 1433 1436 1439 1442 1446 1449 1453 1457 1461 1466 1471 1475 1480 1485 1490 1494 1497 1501 1504 1507 1510 1513 1516 1518 1521 1523 1526 1528 1530 1532 1534 1536 1537 1538 1539
1435 1434 1431 1429 1424 1426 1427 1424 1420 1421 1422 1422 1423 1426 1428 1430 1432 1436 1441 1445 1449 1453 1458 1462 1467 1472 1477 1482 1487 1491 1495 1498 1501 1504 1507 1510 1513 1516 1519 1521 1524 1526 1528 1530 1532 1534 1536 1537 1538
1432 1430 1428 1424 1422 1424 1422 1420 1417 1417 1417 1417 1418 1420 1422 1424 1427 1431 1436 1440 1445 1449 1453 1458 1462 1467 1472 1477 1481 1485 1488 1492 1497 1500 1504 1507 1510 1513 1516 1519 1521 1524 1526 1528 1530 1532 1534 1535 1536
1432 1431 1428 1423 1420 1422 1420 1417 1412 1411 1411 1411 1412 1413 1416 1419 1422 1425 1429 1434 1438 1442 1447 1452 1456 1461 1466 1470 1474 1479 1484 1489 1493 1497 1501 1504 1507 1510 1513 1515 1518 1521 1523 1525 1528 1529 1531 1533 1534
1429 1429 1426 1424 1419 1418 1420 1415 1409 1404 1404 1404 1405 1406 1408 1411 1414 1418 1422 1426 1430 1435 1439 1444 1449 1454 1460 1465 1471 1477 1483 1487 1490 1493 1495 1499 1503 1506 1509 1512 1515 1518 1520 1522 1524 1527 1528 1529 1531
1426 1423 1423 1422 1424 1422 1421 1418 1405 1400 1398 1397 1397 1398 1400 1403 1406 1410 1414 1418 1422 1427 1432 1437 1443 1448 1453 1459 1464 1469 1472 1476 1479 1484 1489 1494 1498 1502 1505 1509 1511 1514 1517 1519 1522 1524 1525 1527 1528
1421 1420 1421 1421 1422 1423 1418 1419 1404 1396 1394 1389 1389 1390 1391 1394 1398 1401 1405 1409 1414 1420 1425 1431 1436 1441 1447 1452 1457 1462 1466 1471 1476 1481 1486 1490 1494 1498 1501 1505 1508 1510 1513 1516 1518 1520 1522 1524 1525
1418 1420 1420 1419 1422 1421 1411 1415 1402 1390 1382 1380 1380 1382 1383 1386 1390 1394 1398 1403 1407 1413 1418 1423 1429 1434 1440 1445 1450 1455 1460 1465 1470 1475 1480 1484 1489 1493 1496 1500 1503 1506 1509 1511 1514 1517 1518 1520 1522
1418 1423 1427 1424 1423 1415 1402 1403 1392 1377 1372 1371 1372 1374 1376 1379 1383 1386 1390 1394 1399 1404 1410 1415 1421 1427 1433 1438 1443 1448 1454 1459 1464 1468 1474 1478 1482 1486 1490 1494 1497 1501 1504 1507 1510 1513 1515 1516 1518
1415 1418 1423 1420 1416 1408 1399 1395 1381 1370 1366 1365 1366 1367 1370 1372 1375 1378 1382 1386 1391 1397 1402 1407 1413 1419 1425 1431 1436 1442 1448 1453 1458 1464 1468 1472 1476 1480 1485 1489 1493 1496 1500 1503 1506 1509 1511 1513 1514
1413 1414 1412 1415 1411 1408 1398 1387 1375 1365 1363 1362 1362 1362 1363 1365 1367 1370 1374 1379 1384 1389 1394 1400 1406 1412 1417 1423 1430 1435 1441 1447 1452 1457 1463 1468 1472 1477 1481 1485 1488 1492 1495 1499 1502 1504 1506 1508 1510
1411 1410 1414 1416 1413 1406 1396 1386 1376 1367 1363 1359 1358 1357 1357 1358 1360 1362 1366 1371 1376 1382 1388 1394 1399 1405 1411 1417 1423 1428 1434 1440 1446 1452 1457 1462 1467 1472 1476 1480 1484 1487 1491 1494 1497 1500 1502 1504 1506
1411 1412 1410 1411 1410 1407 1400 1384 1366 1363 1359 1358 1355 1352 1352 1353 1353 1356 1359 1364 1369 1375 1381 1386 1392 1398 1405 1410 1416 1422 1428 1434 1440 1445 1451 1456 1461 1466 1471 1475 1479 1482 1486 1489 1492 1495 1497 1500 1502
1408 1408 1409 1413 1411 1406 1400 1383 1359 1358 1356 1354 1352 1350 1349 1349 1349 1351 1354 1359 1363 1368 1374 1380 1385 1392 1398 1404 1410 1416 1422 1428 1434 1439 1445 1451 1456 1461 1465 1470 1474 1478 1481 1484 1487 1490 1493 1495 1497